#timestamp,LO_Frequency,Hit,StdDev 
1682236815.4,286047001.9,N
1682236835.2,286047002.5,N
1682236855.1,286046999.7,N
1682236856.0,286046999.7,N
1682236875.8,286046998.1,N
1682236895.7,286047002.9,N
1682236915.5,286047008.8,N
1682236935.3,286047004.5,N
1682236955.2,286047004.8,N
1682236975.0,286047003.2,N
1682236975.9,286047003.2,N
1682236995.7,286046999.8,N
1682237015.6,286046998.7,N
1682237035.4,286046999.1,N
1682237055.3,286046993.5,N
1682237075.1,286046996.3,N
1682237076.0,286046996.3,N
1682237095.8,286046995.5,N
1682237115.7,286046998.0,N
1682237135.5,286046996.4,N
1682237155.3,286046994.1,N
1682237175.2,286046994.1,N
1682237195.0,286046998.8,N
1682237195.9,286046998.8,N
1682237215.8,286046990.3,N
1682237235.6,286046993.0,N
1682237255.4,286046994.2,N
1682237275.3,286047001.6,N
1682237295.1,286047004.3,N
1682237315.8,286046999.9,N
1682237335.7,286047008.6,N
1682237355.5,286047009.5,N
1682237375.4,286047005.7,N
1682237395.2,286047010.7,N
1682237415.0,286047005.1,N
1682237415.9,286047005.1,N
1682237435.8,286047004.3,N
1682237455.6,286047000.6,N
1682237475.4,286047010.5,N
1682237495.3,286047016.7,Y
1682237515.1,286047012.1,P
1682237535.9,286047012.3,N
1682237555.7,286047019.8,P
1682237575.5,286047020.8,N
1682237595.4,286047023.3,Y
1682237615.2,286047005.8,P
1682237635.1,286047002.9,N
1682237636.0,286047002.9,N
1682237655.8,286047006.8,N
1682237675.6,286047012.1,Y
1682237695.5,286047005.5,P
1682237715.3,286047000.5,N
1682237735.1,286046999.4,N
1682237755.9,286046999.5,N
1682237775.7,286046997.5,N
1682237795.6,286046996.1,N
1682237815.4,286047004.3,N
1682237835.2,286047001.7,N
1682237855.1,286047001.1,N
1682237856.0,286047001.1,N
1682237875.8,286046996.5,N
1682237895.6,286047000.3,N
1682237915.5,286047000.6,N
1682237935.3,286046992.7,N
1682237955.2,286046987.0,Y
1682237975.9,286046983.4,P
1682237995.7,286046976.2,N
1682238015.6,286046976.4,N
1682238035.4,286046983.5,N
1682238055.3,286046989.7,N
1682238075.1,286046989.8,N
1682238076.0,286046989.8,N
1682238095.8,286046985.8,N
1682238115.7,286046984.3,N
1682238135.5,286046985.7,N
1682238155.3,286046985.7,N
1682238175.2,286046985.0,N
1682238195.0,286046983.4,N
1682238195.9,286046983.4,N
1682238215.8,286046986.6,N
1682238235.6,286046989.0,N
1682238255.4,286046990.9,N
1682238275.3,286046988.2,N
1682238295.1,286046985.7,N
1682238315.8,286046982.1,Y
1682238335.7,286046999.3,P
1682238355.5,286046996.6,N
1682238375.4,286047003.1,N
1682238395.2,286047009.1,N
1682238415.0,286047008.9,N
1682238415.9,286047008.9,N
1682238435.8,286047011.4,N
1682238455.6,286047021.6,N
1682238475.4,286047019.6,N
1682238495.3,286047013.7,N
1682238515.1,286047011.8,N
1682238535.9,286047008.2,N
1682238555.7,286047005.3,N
1682238575.5,286047007.0,N
1682238595.4,286047003.0,N
1682238615.2,286047005.8,N
1682238635.0,286047007.9,N
1682238635.9,286047007.9,N
1682238655.8,286047009.8,N
1682238675.6,286047015.1,N
1682238695.5,286047020.3,N
1682238715.3,286047021.8,N
1682238735.1,286047020.1,N
1682238755.9,286047013.0,N
1682238775.7,286047012.7,N
1682238795.5,286047016.1,N
1682238815.4,286047021.6,N
1682238835.2,286047026.0,Y
1682238855.1,286047017.4,P
1682238856.0,286047017.4,P
1682238875.8,286047016.6,P
1682238895.6,286047009.4,Y
1682238915.5,286046988.7,P
1682238935.3,286046985.7,N
1682238955.2,286046979.5,N
1682238975.9,286046977.3,N
1682238995.7,286046972.6,N
1682239015.6,286046971.1,N
1682239035.4,286046980.4,N
1682239055.2,286046977.2,N
1682239075.1,286046969.7,N
1682239076.0,286046969.7,N
1682239095.8,286046982.8,N
1682239115.7,286046988.2,N
1682239135.5,286046988.8,N
1682239155.3,286046988.0,N
1682239175.2,286046986.0,N
1682239195.9,286046983.6,N
1682239215.7,286046981.8,N
1682239235.6,286046983.2,N
1682239255.4,286046982.0,N
1682239275.2,286046979.2,N
1682239295.1,286046978.0,N
1682239296.0,286046978.0,N
1682239315.8,286046978.2,N
1682239335.7,286046977.2,N
1682239355.5,286046973.2,Y
1682239375.3,286046991.3,P
1682239395.2,286046989.8,N
1682239415.0,286046993.9,N
1682239415.9,286046993.9,N
1682239435.8,286046999.4,N
1682239455.6,286047004.0,N
1682239475.4,286047013.2,N
1682239495.3,286047016.5,N
1682239515.1,286047010.6,N
1682239535.8,286046999.9,N
1682239555.7,286046995.7,N
1682239575.5,286046991.4,N
1682239595.3,286046989.9,N
1682239615.2,286046983.9,N
1682239635.0,286046982.0,N
1682239635.9,286046982.0,N
1682239655.8,286046981.3,N
1682239675.6,286046988.4,N
1682239695.5,286046997.9,N
1682239715.3,286046999.5,N
1682239735.1,286046999.5,N
1682239755.9,286046999.9,N
1682239775.7,286047004.5,N
1682239795.5,286047001.3,N
1682239815.4,286047008.2,N
1682239835.2,286047011.3,N
1682239855.1,286047017.2,N
1682239856.0,286047017.2,N
1682239875.8,286047022.5,N
1682239895.6,286047028.2,N
1682239915.5,286047025.0,N
1682239935.3,286047023.3,N
1682239955.1,286047019.3,N
1682239975.9,286047016.4,N
1682239995.7,286047006.1,N
1682240015.6,286047001.2,N
1682240035.4,286046995.6,N
1682240055.2,286046992.5,N
1682240075.1,286046994.2,N
1682240076.0,286046994.2,N
1682240095.8,286046999.4,N
1682240115.6,286047001.8,N
1682240135.5,286047008.5,N
1682240155.3,286047001.6,N
1682240175.2,286046995.0,N
1682240195.9,286046990.6,N
1682240215.7,286046987.5,N
1682240235.6,286046989.1,N
1682240255.4,286046986.6,N
1682240275.2,286046985.2,N
1682240295.1,286046977.4,N
1682240296.0,286046977.4,N
1682240315.8,286046977.9,N
1682240335.7,286046976.9,N
1682240355.5,286046972.1,N
1682240375.3,286046970.1,N
1682240395.2,286046967.9,N
